Regional Weather Roundup
Issued by NWS

Home | Current Version | Previous Version | Text Only | Print | Product List | Glossary Off
Versions: 1 2 3 4 5 6 7 8 9 10 11 12 13 14 15 16 17 18 19 20 21 22 23 24 25 26 27 28 29 30 31 32 33 34 35 36 37 38 39 40 41 42 43 44 45 46 47 48 49 50

000
ASUS45 KSLC 260710
RWRUT

UTAH REGIONAL WEATHER ROUNDUP
NATIONAL WEATHER SERVICE SALT LAKE CITY UT
100 AM MDT TUE JUL 26 2016

UTZ001>011-023>025-260800-

NORTHERN UTAH

CITY           SKY/WX    TMP DP  RH WIND       PRES   REMARKS
BRIGHAM CITY     N/A     73  44  35 W6        30.03R
HILL AFB       PTCLDY    78  35  20 E14       30.07R
LOGAN          CLEAR     64  48  56 W3        30.07S
OGDEN          PTCLDY    75  35  23 S5        30.04R
PROVO AIRPORT  CLEAR     73  43  33 SE8       30.06F
SALT LAKE CITY PTCLDY    84  39  20 S9        30.02S
VERNAL         CLOUDY    67  41  38 CALM      30.15S
WENDOVER       PTCLDY    84  28  13 N9        30.04S
HEBER CITY     PTCLDY    61  43  51 NE5       30.17F

$$

UTZ012>022-026-027-260800-

SOUTHERN/CENTRAL UTAH

CITY           SKY/WX    TMP DP  RH WIND       PRES   REMARKS
BLANDING       CLOUDY    74  42  32 N7        30.31R
BRYCE CANYON   MOCLDY    56  46  69 W5        30.39R
CEDAR CITY     PTCLDY    79  42  26 SW10      30.18R
DELTA          PTCLDY    82  30  15 S13       30.06R
MILFORD        CLEAR     72  44  36 SW12      30.10F
MOAB/CYNLANDS  CLOUDY    79  39  23 VRB3      30.08S
PRICE          PTCLDY    68  33  27 SE7       30.22R
ST GEORGE      MOSUNNY   90  45  20 SE13      29.99R

$$

REGIONAL REPORTS     COLORADO/ARIZONA

CITY           SKY/WX    TMP DP  RH WIND       PRES   REMARKS
CRAIG, CO      CLOUDY    69  37  30 CALM      30.23S
GRAND JUNCTION PTCLDY    80  43  26 N7        30.12F
RIFLE          PTCLDY    73  42  32 E6        30.20S
MONTROSE       CLOUDY    70  46  42 SE8       30.25F
CORTEZ         CLOUDY    67  49  52 E3        30.24F
PAGE, AZ       CLOUDY    87  44  22 S13G18    30.07F
GRAND CANYON   CLOUDY    69  46  43 NE7       30.34S
KINGMAN        CLEAR     85  50  29 SE8       30.03R
FLAGSTAFF      CLOUDY    59  53  80 CALM      30.35F

$$

REGIONAL REPORTS    NEVADA/IDAHO/WYOMING

CITY           SKY/WX    TMP DP  RH WIND       PRES   REMARKS
LAS VEGAS, NV  PTCLDY    97  37  12 S8        29.82R HX  92
ELY            CLEAR     60  22  23 S6        30.19S
ELKO           CLEAR     69  17  13 E5        30.12R
POCATELLO, ID  CLEAR     58  34  40 N10       30.06R
BURLEY         CLEAR     60  42  51 SW8       30.02S
EVANSTON, WY   CLOUDY    65  35  33 E5        30.30S
ROCK SPRINGS   CLEAR     70  29  21 S6        30.24S
KEMMERER         N/A    N/A N/A N/A NW5       30.30S

$$



USA.gov is the U.S. government's official web portal to all federal, state and local government web resources and services.